小惑星A/2020 A1

A/2020 A1

English version
Home page
Updated on April 23, 2020

---------------------------------------------------------------------

・ プロフィール

発見日 2020年1月1日
発見光度 20等
発見者 Near-Earth Object Wide-field Infrared Survey Explorer

・ 軌道要素

Epoch 2019 Nov. 13.0 TT = JDT 2458800.5
T 2019 Dec. 2.77496 TT                                  Rudenko
q   1.6711235            (2000.0)            P               Q
n   0.00747119     Peri.  302.71270     -0.89369203     -0.00722723
a  25.9144934      Node   119.27856     +0.28085900     +0.77073814
e   0.9355139      Incl.  149.04754     -0.34990395     +0.63711104
P 132              H   18.0
From 54 observations 2020 Jan. 1-Mar. 24, mean residual 0".4.

・ 光度変化

        H = 18.0  G = 0.15

---------------------------------------------------------------------

軌道要素はM.P.E.C. 2020-H67に掲載されたものです。
光度グラフはComet for Windowsで作成したものです。

---------------------------------------------------------------------

Copyright(C) Seiichi Yoshida (comet@aerith.net). All rights reserved.